THOR ABLESTAR DEB, 558

Orbit data source: Space-Track

THOR ABLESTAR DEB, 558 is space debris in LEO originally from a launch on Thu, 29 Jun 1961 UTC launched from the Air Force Eastern Test Range (AFETR). Debris objects in space refer to the collection of defunct objects orbiting the Earth. Examples of debris include non-operational satellites, rocket bodies, and fragments generated from explosions, collisions, or faulty payload assembly.

Loading next visibility...
Identifier
558, 1961-015GQ
Orbit
LEO
Country
Flag of USUS
Related business
Manufacturer
Unknown
Mission
Spacecraft
Bus & Motor
Unknown
Mass
Unknown
Launch date (UTC)
1961-06-29 (65 years ago)
Launch vehicle
Unknown
Launch site
Air Force Eastern Test Range (AFETR)
Object type
Payload
Rocket body
Debris
Shape & HBR
Unknown shape, 0.2 m
Radar Cross Section
Small (<0.1 m²)

Expand to show TLE details & history
Last TLE update: 2 days ago

TLE from 2 days ago
0 THOR ABLESTAR DEB
1 00558U 61015GQ  26125.78095588 -.00000205  00000-0 -35403-3 0  9994
2 00558  65.6986 247.8521 0464010 116.7572  31.8592 12.86519627 44107
Epoch: 2026-05-05T18:44Z
TLE epoch observation values (Epoch: 2026-05-05T18:44:34.588Z)
Latitude
25.76757°
Longitude
-89.46606°
Altitude
1,019.163 km
Speed
7.486 km/s
True Right ascension
03h 41m 18s
True Declination
25° 38' 17"
Sunlit
Object was in daylight at epoch
Visualization orbit readout
Latitude
Unknown
Longitude
Unknown
Altitude
Unknown
Speed
Unknown
Apparent Right ascension
Unknown
Apparent Declination
Unknown
Sunlit
N/A
Visualization observer readout
Local Sidereal Time
00:30:56
Azimuth
Unknown
Elevation
Unknown
Doppler factor
Unknown
Orbital elements
Apogee altitude
1,670.881 km
Perigee altitude
957.039 km
Semi-major axis
7,692.097 km
Eccentricity
0.0464
Inclination
65.6986°
RAAN
247.8521°
Arg. of periapsis
116.7572°
True anomaly
34.80957°
Mean anomaly
31.8592°
Eccentric anomaly
33.31958°
Mean motion
3.21718 °/min
Orbital period
111.9 mins
BSTAR
-0.00035403

Documentation

Showing up to 5 results
|